FW1232 Weather Reports


time (UTC)temp
F
wind
direction
speed
knots
gust
knots
rain 1hr
in
rain 24hr
in
rain mn
in
humidity
%
barometer
mb
20260509000100 71 271 0.9 2.6 0.00 0.00 0.00 49 1011.2
20260508234558 71 263 4.3 7.8 0.00 0.00 0.00 44 1011.0
20260508233057 72 265 5.2 7.0 0.00 0.00 0.00 43 1011.1
20260508231600 73 262 3.5 7.8 0.00 0.00 0.00 42 1011.2
20260508230126 73 239 3.5 7.0 0.00 0.00 0.00 38 1011.3
20260508224604 72 207 4.3 8.7 0.00 0.00 0.00 38 1011.4
20260508223058 72 232 5.2 9.6 0.00 0.00 0.00 38 1011.6
20260508221559 73 224 4.3 11.3 0.00 0.00 0.00 37 1011.5
20260508220121 73 239 4.3 10.4 0.00 0.00 0.00 36 1011.4
20260508214558 72 304 5.2 12.2 0.00 0.00 0.00 37 1011.5
20260508213100 73 239 4.3 10.4 0.00 0.00 0.00 36 1011.5
20260508211559 74 275 2.6 7.8 0.00 0.00 0.00 36 1011.5
20260508210059 72 219 4.3 10.4 0.00 0.00 0.00 37 1011.8
20260508204607 73 279 3.5 8.7 0.00 0.00 0.00 38 1011.8
20260508203058 71 139 5.2 12.2 0.00 0.00 0.00 35 1011.9
20260508201601 71 151 4.3 11.3 0.00 0.00 0.00 36 1011.9
20260508194601 70 207 5.2 10.4 0.00 0.00 0.00 35 1012.7
20260508193107 70 132 4.3 13.0 0.00 0.00 0.00 35 1012.8
20260508191600 69 122 7.0 12.2 0.00 0.00 0.00 36 1013.0
20260508190108 70 286 3.5 14.8 0.00 0.00 0.00 36 1013.5
20260508184610 69 146 6.1 13.9 0.00 0.00 0.00 37 1013.9
20260508183056 69 201 1.7 9.6 0.00 0.00 0.00 36 1014.1
20260508181610 68 109 4.3 12.2 0.00 0.00 0.00 38 1014.4
20260508180107 67 163 2.6 9.6 0.00 0.00 0.00 38 1014.6
20260508174614 69 19 0.9 3.5 0.00 0.00 0.00 40 1015.0
20260508173101 66 0 1.7 5.2 0.00 0.00 0.00 39 1015.2
20260508171558 65 344 0.9 7.0 0.00 0.00 0.00 42 1015.8
20260508170059 64 0 1.7 4.3 0.00 0.00 0.00 45 1015.8
20260508164556 64 26 4.3 10.4 0.00 0.00 0.00 47 1016.1
20260508163056 65 0 0.0 7.0 0.00 0.00 0.00 49 1016.3
20260508161558 64 0 0.9 3.5 0.00 0.00 0.00 50 1016.6
20260508160104 63 300 1.7 3.5 0.00 0.00 0.00 49 1017.1
20260508154559 63 271 3.5 7.0 0.00 0.00 0.00 52 1017.2
20260508153101 63 267 1.7 7.8 0.00 0.00 0.00 52 1017.3
20260508151558 62 230 2.6 8.7 0.00 0.00 0.00 53 1017.5
20260508150056 61 259 4.3 8.7 0.00 0.00 0.00 53 1017.5
20260508144607 59 299 0.9 3.5 0.00 0.00 0.00 63 1017.6
20260508143100 57 0 0.0 2.6 0.00 0.00 0.00 73 1017.7
20260508141601 56 5 0.0 1.7 0.00 0.00 0.00 75 1017.9
20260508140100 54 5 0.9 2.6 0.00 0.00 0.00 78 1017.9
20260508134616 53 22 0.0 0.9 0.00 0.00 0.00 82 1017.9
20260508133058 51 0 0.0 2.6 0.00 0.00 0.00 87 1017.7
20260508131557 49 0 1.7 3.5 0.00 0.00 0.00 90 1017.7
20260508130057 48 25 1.7 4.3 0.00 0.00 0.00 92 1017.7
20260508124557 48 46 1.7 3.5 0.00 0.00 0.00 92 1017.6
20260508123108 48 0 2.6 3.5 0.00 0.00 0.00 92 1017.5
20260508121559 47 0 0.0 1.7 0.00 0.00 0.00 94 1017.4
20260508120058 45 0 0.9 2.6 0.00 0.00 0.00 96 1017.3
20260508114558 43 111 0.9 2.6 0.00 0.00 0.00 97 1017.2
20260508113105 42 110 1.7 3.5 0.00 0.00 0.00 97 1017.3
20260508111557 42 110 1.7 3.5 0.00 0.00 0.00 96 1017.1
20260508110057 42 109 1.7 3.5 0.00 0.00 0.00 96 1016.8
20260508104606 42 0 0.0 3.5 0.00 0.00 0.00 96 1016.7
20260508103059 43 0 0.0 1.7 0.00 0.00 0.00 96 1016.8
20260508101559 43 106 1.7 5.2 0.00 0.00 0.00 96 1016.5
20260508100059 44 0 0.0 3.5 0.00 0.00 0.00 96 1016.4
20260508094615 44 101 3.5 5.2 0.00 0.00 0.00 95 1016.2
20260508093058 44 100 1.7 3.5 0.00 0.00 0.00 94 1016.2
20260508091605 43 99 2.6 5.2 0.00 0.00 0.00 91 1016.2
20260508090057 44 130 1.7 2.6 0.00 0.00 0.00 91 1016.1
20260508084558 44 138 0.9 5.2 0.00 0.00 0.00 91 1016.3
20260508083056 44 134 2.6 5.2 0.00 0.00 0.00 90 1016.5
20260508081618 44 111 1.7 3.5 0.00 0.00 0.00 90 1016.3
20260508080101 44 107 0.9 2.6 0.00 0.00 0.00 93 1016.5
20260508074558 44 107 1.7 3.5 0.00 0.00 0.00 92 1016.4
20260508073059 45 103 0.9 2.6 0.00 0.00 0.00 90 1016.4
20260508071559 45 102 0.9 3.5 0.00 0.00 0.00 89 1016.5
20260508070059 45 101 0.9 3.5 0.00 0.00 0.00 89 1016.5
20260508064558 46 95 0.0 3.5 0.00 0.00 0.00 90 1016.4
20260508063108 46 0 1.7 3.5 0.00 0.00 0.00 89 1016.5
20260508061559 47 86 0.9 3.5 0.00 0.00 0.00 91 1016.7
20260508054558 47 84 0.9 2.6 0.00 0.00 0.00 89 1016.7
20260508053058 48 84 0.0 2.6 0.00 0.00 0.00 86 1016.7
20260508051558 48 0 1.7 3.5 0.00 0.00 0.00 85 1016.7
20260508050058 48 82 0.9 3.5 0.00 0.00 0.00 84 1017.0
20260508044600 48 76 1.7 3.5 0.00 0.00 0.00 84 1016.8
20260508043103 48 0 0.0 0.0 0.00 0.00 0.00 87 1016.7
20260508041557 49 0 0.0 1.7 0.00 0.00 0.00 86 1016.5
20260508034559 50 38 0.9 2.6 0.00 0.00 0.00 85 1016.2
20260508033057 50 38 0.9 2.6 0.00 0.00 0.00 83 1016.1
20260508031557 51 0 0.0 2.6 0.00 0.00 0.00 82 1016.1
20260508030104 52 34 1.7 2.6 0.00 0.00 0.00 79 1016.1
20260508024606 53 0 0.0 0.0 0.00 0.00 0.00 77 1016.1
20260508023059 54 0 0.0 1.7 0.00 0.00 0.00 76 1015.9
20260508021559 55 30 0.0 1.7 0.00 0.00 0.00 73 1015.8
20260508020103 56 349 1.7 7.0 0.00 0.00 0.00 70 1015.7
20260508014559 57 0 0.0 0.0 0.00 0.00 0.00 71 1015.4
20260508013059 58 294 1.7 3.5 0.00 0.00 0.00 58 1014.9
20260508011557 59 290 2.6 4.3 0.00 0.00 0.00 57 1014.7
20260508010056 59 290 1.7 4.3 0.00 0.00 0.00 57 1014.6
20260508004603 60 303 2.6 5.2 0.00 0.08 0.00 54 1014.3
20260508003056 61 298 4.3 7.8 0.00 0.08 0.00 50 1014.2
20260508001559 62 275 6.1 12.2 0.00 0.08 0.00 50 1014.0